Temperature
18 16 16 15 15 15 15 14 14 14 14 13 11 11 11 12 11 11 11 11 11 11 11 11 12 12 12 11 11 11 12 13 13 13 13 12 12 11 12 12 12 12 12
18 17 16 15 15 14 14 14 14 14 14 13 11 11 11 11 11 11 11 11 11 11 11 11 11 11 11 11 11 12 13 13 12 12 12 12 12 12 13 12 12 12 12
18 17 16 15 15 14 14 14 14 13 13 13 12 12 12 12 12 11 11 11 11 11 11 11 11 11 11 11 11 13 13 12 11 11 11 12 13 13 13 13 12 12 12
18 17 16 15 15 14 14 14 14 13 13 13 12 12 12 12 11 11 11 11 11 12 13 13 11 11 11 11 11 13 12 12 11 11 12 12 13 14 14 14 12 11 11
18 17 16 15 15 15 14 14 14 14 13 12 12 13 12 12 11 11 12 12 12 13 14 13 12 13 12 11 11 13 12 12 11 11 12 12 12 13 13 13 13 13 12
19 17 16 16 15 15 15 14 13 13 13 12 12 12 12 12 11 11 12 12 13 13 13 13 13 13 14 13 13 13 12 12 12 11 12 12 12 13 13 13 13 13 13
19 18 16 16 15 15 14 13 13 13 13 12 12 12 12 12 11 12 12 12 13 12 13 13 14 14 14 14 14 14 13 12 13 13 13 12 13 13 13 13 13 13 13
19 18 17 16 15 15 14 14 13 13 13 13 11 11 12 12 12 13 13 13 12 12 12 13 13 14 14 14 14 14 13 12 13 13 13 13 13 13 13 13 13 13 13
19 18 17 16 16 15 15 14 14 14 14 13 11 12 12 12 13 13 13 12 12 12 12 12 13 13 14 14 14 14 13 13 13 13 14 13 13 13 13 13 13 13 13
19 18 18 17 17 16 16 15 16 16 16 14 13 14 14 14 14 14 13 13 13 13 13 12 12 13 13 14 14 14 13 13 13 13 13 14 13 13 13 13 13 13 13
20 19 19 18 18 17 16 16 17 17 16 15 15 15 15 15 15 15 15 14 14 15 14 14 13 13 14 14 14 14 14 13 13 13 13 13 13 13 13 13 13 13 13
21 21 20 19 18 17 17 17 17 17 16 16 16 16 15 15 15 16 15 15 16 16 15 15 15 14 14 14 14 14 14 14 13 13 13 14 13 13 13 13 13 13 13
21 20 20 20 18 18 18 17 17 17 17 17 16 16 16 16 16 16 16 16 16 16 15 15 15 15 14 14 14 14 14 14 14 14 14 14 14 13 13 13 14 14 14
21 20 19 19 19 18 18 18 17 17 17 17 17 17 17 17 17 17 17 16 16 16 15 15 15 15 14 14 14 14 14 14 14 14 14 13 14 14 13 13 14 14 14
21 21 20 19 19 19 19 18 18 17 17 17 17 17 17 17 17 17 17 17 17 16 16 16 15 15 15 14 14 14 14 14 14 14 14 14 13 13 13 13 13 13 14
22 22 20 20 19 19 19 19 18 17 17 17 17 17 17 18 18 18 17 17 17 16 16 15 15 15 14 14 14 14 14 13 13 13 14 14 13 13 13 13 13 13 13
21 21 21 20 19 19 19 18 18 17 17 17 18 18 17 17 17 17 17 17 16 15 14 14 14 13 13 13 14 14 14 14 13 13 13 13 13 13 13 13 13 12 12
21 21 21 20 20 19 19 18 18 18 17 18 18 17 17 16 16 15 15 15 15 15 14 14 14 14 13 13 13 13 13 13 13 13 13 12 13 13 13 13 13 13 12
22 22 21 20 20 19 19 18 18 18 17 17 17 17 16 16 15 15 15 15 15 14 14 13 13 12 12 13 12 12 12 12 12 12 12 12 12 12 13 13 13 12 12
21 21 20 20 19 18 18 18 18 17 17 17 17 17 17 16 15 15 14 14 14 14 13 13 12 12 12 12 11 11 12 12 12 12 12 12 12 12 12 12 12 12 12
19 19 19 19 19 18 18 18 18 18 18 18 17 17 16 15 15 14 14 14 14 13 13 13 12 12 12 11 11 11 11 12 12 12 12 12 12 12 12 12 12 12 12
19 19 19 18 18 19 18 18 17 17 17 17 16 15 15 14 14 14 13 13 13 13 13 13 12 12 12 11 11 10 10 11 11 11 12 13 14 13 13 13 13 13 12
19 18 19 18 18 17 18 17 17 16 16 15 15 14 14 14 13 13 13 13 13 13 13 13 13 12 12 12 11 10 10 10 12 12 12 12 12 12 12 12 13 13 13
17 17 17 17 17 16 16 16 16 15 14 14 14 14 13 13 13 13 12 13 13 13 13 13 13 13 12 12 12 11 11 10 10 11 12 12 11 11 11 11 12 12 12
16 16 16 16 16 16 15 15 14 14 13 13 13 13 13 12 12 12 12 12 12 12 13 13 12 12 12 12 12 11 11 11 10 10 10 11 12 12 12 11 11 11 12
15 15 15 15 15 14 14 14 13 13 13 13 13 12 12 12 12 12 12 12 11 11 11 11 12 11 11 11 11 11 11 11 11 10 10 10 11 12 12 11 11 11 12
Wind_Speed
5 12 19 17 16 15 13 12 10 9 8 7 7 6 5 5 4 4 5 4 4 4 3 4 4 6 7 7 7 7 6 6 8 5 3 2 3 4 6 6 5 3 5
10 14 18 17 17 17 14 12 11 10 9 8 7 7 7 7 6 5 5 5 5 4 3 4 5 6 5 7 7 6 4 4 3 2 1 3 1 4 3 3 4 8 8
12 14 16 17 18 16 13 11 10 10 10 8 7 8 10 8 7 6 5 4 5 5 3 2 6 5 4 6 7 4 2 1 1 3 4 4 2 4 4 5 4 7 8
12 14 14 17 18 16 14 11 10 10 9 8 8 8 11 9 7 6 5 5 5 5 4 2 3 4 2 4 4 3 2 1 4 4 3 6 3 4 4 5 5 6 6
10 13 14 18 18 16 14 12 10 10 8 8 10 9 10 10 9 7 6 6 5 5 4 4 2 3 3 3 4 3 2 3 7 6 1 4 3 3 4 4 3 4 3
9 12 16 18 18 17 15 13 11 10 9 9 9 10 11 11 10 7 7 7 6 5 4 4 4 4 5 5 5 4 3 2 6 4 3 6 4 4 5 5 6 5 5
8 10 15 19 19 17 16 14 12 11 10 9 8 7 8 11 10 8 7 7 6 6 5 5 6 7 6 6 8 7 5 1 3 2 4 6 6 6 6 6 6 6 6
9 8 12 17 18 17 17 15 13 12 11 11 11 6 5 6 6 7 6 7 8 8 7 7 8 9 9 9 9 8 7 4 2 1 4 6 7 8 8 7 6 6 6
7 8 8 11 14 16 16 16 14 12 12 12 11 9 7 5 6 7 6 7 9 9 8 8 9 10 11 11 11 10 9 7 3 3 5 8 10 10 10 9 9 9 8
7 8 6 9 11 12 12 15 15 13 12 11 10 11 7 6 6 7 7 8 10 10 10 10 11 12 12 13 13 12 11 9 6 6 7 10 13 13 12 12 11 11 11
8 7 8 7 9 12 11 11 13 14 13 12 10 13 11 8 7 9 9 10 11 12 12 13 13 13 13 13 14 13 12 11 9 9 10 13 17 16 16 15 15 15 15
11 9 9 9 8 8 9 9 11 12 12 11 11 13 11 10 10 10 13 14 14 15 15 15 15 14 13 11 11 12 11 12 11 11 13 15 19 19 19 19 19 18 18
9 9 11 9 7 7 5 7 8 10 10 11 12 13 12 11 11 11 11 12 13 14 11 12 12 12 10 10 10 11 12 12 12 13 15 18 22 24 22 22 22 22 21
8 10 10 11 10 8 7 7 6 6 7 8 12 14 11 6 5 6 5 8 8 9 8 8 7 9 10 12 11 10 11 10 11 13 17 20 23 27 25 25 25 25 24
11 13 12 12 13 11 8 6 4 6 8 9 11 14 13 5 7 5 4 7 8 9 7 4 5 5 7 8 10 9 7 9 12 12 14 20 24 28 28 27 27 28 28
13 13 12 14 13 12 11 10 9 8 11 9 11 14 16 13 8 9 8 8 7 8 7 6 7 8 8 8 9 8 7 8 11 12 13 17 22 27 29 30 30 30 30
10 10 12 13 12 12 13 12 10 9 8 7 10 14 16 15 11 9 8 8 6 7 8 6 6 5 6 7 10 10 9 8 10 10 12 13 15 21 27 31 30 29 30
9 11 12 12 12 13 12 10 8 5 7 7 9 11 13 13 11 5 7 7 5 7 6 7 8 8 8 9 10 9 9 9 11 10 10 11 11 13 19 27 30 31 31
5 7 8 9 11 13 12 9 9 8 9 7 7 8 11 12 12 7 8 8 7 7 8 8 8 7 9 10 10 9 9 9 11 11 12 11 12 14 15 19 24 29 31
8 6 3 3 6 6 4 4 4 5 7 6 7 8 10 11 12 9 10 11 8 8 8 7 10 9 10 9 8 11 10 10 11 12 13 12 11 13 14 15 15 18 26
10 10 8 7 2 4 3 3 3 5 5 5 7 6 8 9 10 9 10 11 9 11 13 11 10 11 10 5 5 10 12 11 14 14 12 13 15 13 11 12 12 12 13
10 10 9 9 8 2 3 3 2 2 3 4 3 5 7 8 8 10 11 11 10 10 12 12 10 10 10 7 8 8 8 11 12 12 13 15 15 13 13 13 13 11 8
11 10 10 11 10 9 5 2 2 2 2 3 3 4 6 7 8 11 12 12 12 10 12 13 12 13 14 12 12 10 6 6 4 6 8 11 12 12 12 13 14 15 11
9 9 11 11 10 10 10 8 7 4 3 4 3 4 6 6 7 8 11 12 12 10 12 13 13 13 15 13 11 14 16 13 9 10 10 9 9 12 12 12 13 15 13
9 10 10 11 11 11 11 9 8 7 4 3 4 7 8 8 8 8 8 8 9 10 12 13 13 13 13 14 13 12 13 14 18 16 15 15 12 12 12 13 14 13 13
9 9 9 11 12 12 12 11 11 10 9 9 10 10 8 7 7 11 11 10 8 8 10 12 13 13 13 14 14 14 13 11 12 15 15 16 17 16 14 13 15 14 13
Wind_Direction
188 177 174 173 168 164 163 165 166 170 158 156 160 169 157 140 133 120 126 138 122 103 120 155 129 107 109 116 109 115 123 112 93 80 72 59 95 97 76 57 78 99 108
158 171 171 176 172 165 168 173 175 175 165 166 181 172 160 148 147 137 131 117 119 106 116 148 159 122 130 137 127 131 141 126 111 73 316 296 196 128 117 104 89 100 105
149 164 169 173 166 162 170 178 180 183 175 178 192 174 155 150 157 151 137 133 124 114 120 151 160 135 141 148 132 139 182 144 20 324 262 235 186 138 132 116 114 100 105
150 158 164 166 164 163 171 178 181 184 181 188 202 179 159 152 150 146 145 159 152 146 152 155 150 133 147 149 138 160 239 321 4 346 202 192 188 135 139 146 138 117 100
148 157 163 164 165 166 172 178 183 185 186 197 209 194 171 157 156 157 164 170 168 164 162 160 170 167 161 177 173 185 257 344 11 6 108 141 138 155 145 142 135 127 120
152 156 161 164 167 169 174 177 182 185 190 210 216 195 179 169 160 170 182 180 179 177 179 186 199 201 206 202 210 217 235 4 31 19 152 153 162 169 158 159 154 148 151
156 157 163 167 171 174 177 181 180 187 192 202 207 181 180 175 171 176 193 193 190 194 201 208 213 214 220 216 223 222 223 191 78 83 193 170 176 184 181 181 170 161 155
157 160 167 173 176 179 179 182 182 190 194 195 204 185 186 179 170 184 203 213 209 208 212 220 224 225 224 222 223 227 235 229 115 125 202 205 188 197 195 191 183 175 171
152 156 163 173 181 184 184 184 183 191 200 211 211 200 213 210 191 202 211 217 215 216 224 233 235 232 229 227 227 229 238 246 198 218 221 224 206 206 205 201 194 194 193
167 166 164 172 176 180 187 188 184 190 205 213 209 192 201 205 195 204 212 218 216 220 229 238 242 240 234 231 230 231 236 249 247 228 235 235 223 214 211 209 206 206 205
189 186 182 182 184 185 192 195 191 194 201 207 210 191 198 211 212 211 210 216 218 221 228 237 245 245 239 233 233 234 235 242 249 242 239 238 227 221 217 214 212 213 212
195 201 197 191 192 191 196 197 199 199 203 207 202 196 198 208 219 222 224 224 225 225 228 237 245 246 239 233 239 243 239 240 240 243 239 237 232 229 226 220 218 217 218
199 200 201 196 194 193 197 186 195 202 205 207 206 202 205 213 224 229 229 232 229 230 234 242 248 249 240 234 240 244 243 240 239 242 240 239 236 234 231 225 222 222 223
216 216 200 196 195 197 194 184 187 197 205 208 208 207 208 217 227 229 224 224 221 226 232 239 246 250 248 242 239 241 242 240 239 242 243 242 236 233 234 232 228 227 227
219 219 211 192 197 196 190 187 180 196 206 210 212 214 213 212 224 219 219 221 221 221 222 224 229 236 241 242 240 236 238 239 239 243 245 244 238 235 237 237 235 234 232
221 220 212 205 198 191 193 192 196 197 206 206 215 218 217 219 222 222 223 225 229 226 227 230 232 233 237 241 246 240 239 242 240 241 243 245 239 234 235 238 240 240 240
235 225 213 210 201 198 200 199 198 202 203 211 219 222 223 223 224 227 232 236 239 234 238 242 248 247 248 244 247 244 240 239 242 244 243 242 240 238 237 240 243 245 245
236 225 217 209 202 205 207 201 200 199 206 215 218 224 229 229 227 229 240 244 228 224 223 230 233 236 239 239 245 244 245 246 246 245 244 240 237 236 239 241 242 245 246
319 251 226 210 205 206 207 201 200 201 213 218 216 223 227 226 220 215 232 236 224 227 234 239 245 237 252 251 251 253 248 248 249 249 245 239 236 235 238 242 242 244 246
12 21 10 237 224 220 217 199 200 212 226 220 222 226 224 223 222 220 238 243 230 233 243 234 244 242 248 255 257 259 255 249 251 251 249 246 242 238 239 243 244 246 246
19 25 26 27 318 188 163 171 193 226 233 235 234 234 228 228 228 226 239 245 233 237 244 237 237 246 249 228 242 265 261 252 252 253 251 250 250 247 244 243 244 247 248
21 21 22 20 12 31 162 155 161 197 236 246 245 246 245 241 238 239 241 247 242 240 248 245 238 246 251 222 229 262 272 269 252 245 243 246 250 249 247 242 243 244 241
24 20 27 22 20 20 34 94 84 67 9 358 336 295 272 256 254 252 252 251 249 238 244 244 234 236 250 247 227 232 251 253 286 261 244 245 246 244 246 247 241 242 238
18 24 32 29 30 29 33 50 53 49 20 342 323 322 314 297 282 270 266 263 257 248 247 247 244 238 244 252 244 232 241 252 259 276 263 251 243 246 242 242 242 242 236
23 27 27 30 33 30 40 51 55 50 26 348 356 1 358 352 351 342 320 298 280 268 261 259 255 248 245 247 250 249 245 249 251 257 269 271 261 248 241 238 242 242 236
29 31 30 35 31 27 33 36 40 37 26 22 12 11 2 355 356 1 357 350 332 311 294 283 275 267 263 258 258 257 257 252 251 253 257 262 265 266 257 239 237 236 233
Height
1507 1507 1508 1510 1511 1513 1514 1515 1515 1515 1515 1514 1514 1515 1515 1515 1515 1516 1515 1514 1514 1512 1512 1512 1514 1515 1514 1513 1511 1510 1510 1509 1509 1508 1508 1508 1507 1508 1508 1508 1508 1507 1507
1506 1506 1507 1509 1510 1512 1513 1514 1515 1515 1514 1514 1515 1515 1515 1515 1514 1513 1513 1513 1513 1512 1512 1512 1513 1513 1512 1511 1509 1508 1509 1509 1508 1508 1508 1506 1506 1506 1507 1507 1507 1507 1507
1504 1505 1506 1508 1510 1511 1512 1513 1514 1514 1513 1513 1514 1515 1515 1514 1514 1513 1512 1512 1512 1511 1510 1511 1512 1510 1510 1510 1509 1508 1509 1509 1508 1508 1507 1506 1506 1506 1506 1506 1507 1507 1506
1504 1505 1506 1508 1509 1510 1512 1513 1513 1513 1512 1512 1514 1515 1515 1514 1514 1513 1512 1512 1511 1509 1509 1510 1510 1509 1509 1510 1509 1509 1509 1509 1508 1507 1507 1507 1506 1507 1507 1507 1507 1506 1506
1503 1505 1505 1507 1508 1509 1511 1511 1512 1512 1512 1512 1514 1515 1514 1514 1514 1512 1511 1510 1509 1509 1509 1509 1509 1509 1509 1508 1508 1508 1508 1508 1508 1508 1507 1507 1507 1508 1508 1507 1507 1506 1505
1503 1504 1505 1506 1507 1508 1509 1510 1511 1511 1511 1512 1514 1514 1514 1514 1513 1511 1510 1509 1509 1509 1509 1509 1508 1508 1507 1507 1507 1507 1507 1507 1507 1507 1508 1508 1508 1508 1507 1506 1505 1505 1504
1503 1503 1504 1505 1506 1507 1508 1509 1509 1509 1509 1510 1512 1513 1513 1512 1512 1510 1510 1510 1509 1509 1508 1508 1507 1506 1506 1506 1506 1505 1506 1505 1505 1505 1506 1507 1507 1507 1506 1505 1505 1504 1504
1503 1503 1503 1504 1505 1506 1507 1507 1508 1508 1508 1508 1510 1511 1511 1511 1510 1510 1509 1509 1509 1508 1508 1507 1506 1505 1505 1505 1504 1504 1505 1505 1504 1504 1505 1505 1506 1506 1505 1504 1504 1504 1503
1503 1502 1502 1502 1503 1504 1505 1506 1506 1506 1507 1507 1508 1508 1509 1509 1508 1509 1508 1508 1508 1507 1506 1505 1505 1504 1503 1503 1503 1503 1504 1504 1503 1503 1503 1503 1504 1504 1503 1503 1502 1502 1501
1502 1502 1501 1501 1502 1502 1503 1504 1505 1505 1505 1505 1506 1506 1507 1507 1507 1507 1506 1506 1506 1505 1504 1503 1502 1501 1501 1501 1501 1502 1502 1502 1502 1501 1501 1501 1501 1501 1501 1501 1501 1500 1500
1500 1500 1500 1500 1500 1501 1502 1502 1503 1504 1504 1504 1505 1505 1505 1505 1505 1504 1504 1504 1504 1503 1502 1501 1500 1499 1498 1498 1498 1499 1499 1499 1499 1499 1499 1499 1498 1498 1497 1497 1497 1497 1496
1498 1499 1498 1499 1500 1500 1500 1501 1501 1502 1503 1503 1503 1503 1503 1503 1503 1503 1503 1502 1502 1500 1499 1498 1497 1496 1495 1495 1495 1495 1496 1496 1496 1496 1496 1496 1495 1494 1494 1493 1493 1492 1492
1497 1497 1497 1498 1499 1499 1499 1499 1500 1501 1501 1501 1501 1501 1501 1501 1501 1501 1501 1500 1499 1498 1496 1495 1494 1493 1492 1492 1492 1492 1492 1492 1492 1492 1492 1491 1491 1490 1489 1488 1488 1487 1487
1495 1496 1496 1496 1497 1497 1497 1498 1499 1499 1499 1498 1499 1500 1499 1499 1499 1499 1499 1498 1496 1495 1494 1493 1492 1491 1490 1489 1489 1488 1488 1488 1487 1487 1487 1487 1486 1486 1485 1484 1483 1483 1482
1493 1493 1494 1493 1494 1495 1495 1496 1497 1497 1497 1497 1497 1497 1497 1497 1497 1497 1496 1495 1494 1493 1492 1491 1489 1488 1487 1486 1485 1484 1483 1483 1483 1483 1482 1482 1482 1481 1481 1480 1478 1478 1477
1490 1491 1491 1491 1491 1492 1491 1492 1493 1494 1494 1494 1494 1495 1495 1494 1494 1494 1492 1491 1490 1490 1489 1488 1487 1485 1483 1483 1481 1480 1480 1480 1479 1478 1477 1476 1475 1474 1473 1472 1471 1471 1471
1489 1489 1489 1489 1489 1489 1488 1488 1489 1491 1492 1492 1493 1493 1493 1492 1491 1490 1489 1488 1488 1487 1487 1485 1483 1482 1480 1479 1477 1476 1475 1474 1472 1472 1471 1469 1468 1467 1466 1465 1465 1465 1464
1485 1485 1486 1486 1486 1487 1487 1487 1488 1489 1489 1490 1490 1491 1491 1490 1489 1489 1487 1485 1484 1483 1482 1479 1477 1476 1474 1472 1470 1470 1469 1468 1466 1465 1463 1462 1461 1460 1459 1457 1457 1456 1455
1482 1481 1482 1483 1483 1484 1485 1485 1485 1486 1487 1487 1488 1488 1487 1487 1486 1485 1483 1481 1480 1479 1477 1475 1473 1472 1469 1466 1465 1464 1463 1461 1459 1457 1454 1452 1451 1450 1448 1447 1447 1446 1445
1479 1478 1478 1478 1479 1481 1482 1482 1482 1483 1484 1484 1484 1483 1483 1483 1482 1480 1478 1476 1475 1472 1470 1469 1467 1466 1464 1462 1460 1457 1455 1452 1451 1448 1444 1443 1441 1440 1438 1436 1435 1434 1434
1479 1477 1476 1476 1476 1476 1478 1479 1480 1481 1481 1481 1481 1481 1480 1479 1477 1474 1471 1469 1467 1465 1462 1460 1460 1459 1457 1456 1453 1449 1446 1444 1441 1438 1436 1434 1432 1430 1429 1427 1426 1424 1422
1480 1478 1477 1476 1475 1474 1474 1476 1478 1479 1479 1479 1479 1478 1476 1474 1472 1469 1467 1465 1462 1459 1456 1455 1454 1452 1449 1449 1447 1443 1438 1434 1429 1428 1426 1423 1421 1420 1416 1415 1416 1415 1412
1481 1479 1477 1476 1475 1474 1474 1474 1475 1476 1476 1476 1475 1474 1472 1469 1467 1465 1462 1459 1456 1453 1451 1449 1447 1445 1443 1441 1439 1438 1432 1424 1422 1420 1419 1417 1415 1412 1409 1407 1404 1404 1402
1482 1481 1480 1479 1477 1476 1475 1474 1474 1474 1473 1472 1471 1469 1467 1465 1462 1460 1457 1454 1451 1448 1445 1443 1442 1438 1436 1432 1431 1427 1424 1421 1417 1411 1409 1408 1407 1404 1401 1399 1398 1395 1392
1485 1483 1483 1482 1480 1478 1477 1475 1474 1473 1472 1471 1469 1466 1464 1462 1460 1456 1453 1450 1446 1443 1440 1438 1436 1434 1430 1426 1422 1419 1415 1411 1408 1405 1398 1395 1393 1392 1390 1388 1386 1384 1381
1487 1485 1484 1483 1481 1480 1478 1476 1474 1473 1472 1470 1468 1465 1463 1461 1458 1455 1451 1448 1444 1440 1437 1434 1431 1428 1425 1421 1417 1414 1410 1406 1401 1398 1391 1386 1382 1380 1378 1375 1373 1371 1370